SCP
-0 0 0 0 0 -0 -0 -0 -0 -0 -0 -0 -0 -0 0 -0 -0 0 0 0 0 0 0 0 -0 -0 -1 -0 -0 -0 -0 -0
-0 -0 0 -0 -0 -0 0 0 0 -0 0 0 0 0 0 0 0 -0 0 0 0 0 0 1 0 0 -0 -0 -1 -1 -0 -0
0 -0 -0 0 0 0 0 0 -0 0 0 0 0 0 0 0 0 0 0 0 -0 0 1 1 0 0 0 -0 -0 -0 -0 -0
0 0 0 -0 0 0 0 0 0 0 0 0 0 0 0 1 0 0 0 0 0 -0 0 0 0 0 0 0 -0 -0 -0 0
0 0 0 0 0 0 0 -0 -0 0 0 -0 0 0 0 1 0 0 0 0 0 1 0 0 0 -0 0 0 0 0 0 1
0 0 -0 0 0 0 0 -0 -0 0 0 0 0 0 0 0 0 0 -0 -0 0 0 0 0 -0 0 0 0 1 1 1 1
0 0 0 0 0 0 0 0 0 0 0 0 0 0 0 0 1 0 0 0 0 -0 -0 -0 -0 -0 0 0 0 1 1 1
0 0 0 0 0 0 0 -0 0 0 0 0 1 1 1 0 1 0 0 1 0 0 0 -0 -0 -0 -0 -0 -0 0 0 1
-0 0 0 0 0 0 0 0 0 0 0 0 0 0 1 1 1 1 1 1 0 0 0 0 0 -0 -0 -0 -0 0 1 2
0 0 0 0 0 0 0 0 0 0 0 0 0 0 0 1 1 0 0 0 0 0 0 0 0 0 -0 0 0 0 0 0
0 0 0 0 0 0 0 0 0 0 0 0 0 0 0 0 0 0 0 0 0 0 -0 0 1 0 0 0 0 0 0 0
0 0 0 0 0 0 0 0 0 0 0 0 0 0 0 0 0 0 0 0 0 0 0 0 0 0 0 0 0 0 0 0
0 0 0 0 0 0 0 0 0 0 0 0 0 0 0 0 0 0 0 0 0 0 0 0 0 0 0 0 0 0 0 1
0 0 0 0 0 0 0 0 0 0 0 0 0 0 0 0 0 0 0 0 0 0 0 0 0 0 0 0 0 0 0 0
0 0 0 0 0 0 0 0 0 0 0 0 0 0 0 0 0 0 0 0 0 0 0 0 0 0 0 0 0 0 0 0
0 0 0 0 0 0 0 0 0 0 0 0 0 0 0 0 0 0 0 0 0 0 0 0 0 0 0 0 0 0 0 0
0 0 0 0 0 0 0 0 0 0 0 0 0 0 0 0 0 0 0 0 0 -0 0 0 0 0 0 0 0 0 0 0
0 0 0 0 0 0 0 0 0 0 0 0 0 0 0 0 0 0 0 0 0 0 0 0 0 0 0 0 0 0 0 0
0 0 0 0 0 0 0 0 0 0 0 0 0 0 0 0 0 0 0 0 0 0 0 0 0 0 0 0 0 0 0 0
Wind_Speed_500mb
7 6 12 5 6 8 13 7 9 8 10 11 18 7 23 40 59 48 20 50 65 86 78 84 88 87 83 79 73 66 55 50
18 10 10 10 5 10 9 4 5 10 3 7 9 10 12 27 39 46 35 19 45 51 68 74 81 81 79 74 70 61 55 46
9 10 8 10 9 11 10 7 9 2 9 8 14 13 17 22 31 29 36 48 53 57 49 40 67 78 82 77 71 67 54 46
15 11 6 9 9 9 10 10 1 9 7 8 5 14 25 33 32 38 57 56 55 60 70 45 30 40 83 83 78 69 59 53
20 15 18 13 11 4 7 6 1 8 9 9 13 7 19 38 36 36 57 48 53 60 57 56 66 86 82 87 88 80 75 65
11 15 8 14 15 6 10 6 6 9 9 13 16 15 11 22 42 35 34 49 52 54 50 44 56 83 56 62 80 93 83 77
9 12 2 6 12 16 5 10 7 15 13 13 17 20 20 18 38 39 34 26 27 32 41 53 45 44 41 41 49 67 89 83
10 14 14 8 14 16 12 8 2 8 14 10 35 35 37 24 8 33 24 19 29 28 32 44 42 43 51 54 56 47 57 78
12 9 11 13 10 9 8 7 13 12 1 9 32 43 44 44 61 46 29 26 18 23 14 18 43 58 66 77 78 76 75 84
9 6 7 17 11 9 19 14 18 22 15 22 31 43 44 38 38 23 10 12 21 14 15 25 27 22 51 40 30 45 56 84
7 7 10 15 12 8 11 9 4 22 13 16 30 38 41 38 38 31 23 16 28 29 28 14 23 45 69 26 27 30 35 34
6 9 12 14 11 8 12 6 9 29 17 27 24 11 8 28 28 31 34 17 34 20 11 6 9 12 23 35 33 25 29 41
7 7 13 12 9 5 5 12 14 40 39 46 15 17 26 32 33 32 35 33 32 33 26 18 19 24 28 38 42 47 33 27
6 5 6 6 10 10 13 22 34 34 30 31 27 24 21 23 29 33 34 32 28 24 26 24 20 24 31 37 38 44 51 48
15 12 16 29 40 38 30 33 28 27 21 17 18 22 21 21 26 32 34 29 30 28 26 24 20 20 26 30 43 44 37 62
7 7 10 24 37 38 44 38 27 21 16 13 18 15 18 22 24 16 17 21 24 28 28 29 30 24 19 21 35 52 67 69
4 7 23 34 45 43 36 26 18 12 11 17 15 20 18 14 10 14 20 25 31 37 36 33 33 35 36 35 40 47 64 66
9 16 13 26 33 30 25 17 11 13 14 13 15 14 10 9 11 19 27 35 39 39 38 38 41 42 44 50 47 43 51 64
11 18 14 33 27 22 22 29 22 18 13 13 14 10 15 18 16 20 21 25 35 44 53 61 63 60 56 56 60 61 57 60
Wind_Direction_500mb
324 232 112 310 1 187 109 333 55 292 323 350 25 85 60 61 45 29 43 210 207 199 183 192 200 202 209 208 212 216 222 227
304 23 334 131 233 29 14 47 24 306 326 240 78 64 52 66 61 35 29 161 180 168 176 191 199 207 211 211 214 216 218 218
22 2 308 356 354 44 108 107 155 236 280 244 182 139 94 99 85 73 88 110 120 142 152 172 199 207 211 213 215 214 216 211
251 264 291 132 8 111 110 297 155 157 266 287 231 146 126 118 118 122 126 132 143 149 164 185 205 255 223 217 219 219 219 216
347 351 8 43 338 33 115 85 160 79 263 282 263 231 158 134 137 140 146 152 151 158 173 205 205 213 221 215 221 224 220 222
184 222 228 328 325 10 107 62 181 204 245 270 251 246 226 174 158 145 155 168 183 202 228 249 209 223 219 214 223 228 226 228
246 233 324 301 327 323 346 228 180 253 219 311 268 222 217 203 156 161 163 175 178 193 208 212 225 220 223 212 217 231 237 232
325 318 357 316 301 315 328 273 30 22 63 316 52 68 36 17 138 167 160 166 187 202 217 229 236 252 249 251 219 222 240 243
288 309 356 333 256 274 270 290 151 77 151 278 56 57 51 58 78 92 123 160 180 208 227 267 261 276 270 272 282 276 257 243
228 38 336 243 267 232 103 79 87 94 134 98 104 81 64 57 74 75 64 133 48 360 328 312 280 320 316 283 292 270 249 229
157 182 280 324 327 151 129 23 47 103 95 119 122 80 53 54 66 50 44 88 53 45 30 97 179 176 229 262 305 302 275 259
140 157 214 229 285 151 111 40 324 102 106 89 98 65 295 35 38 42 37 29 12 20 25 255 129 220 231 237 262 294 278 261
160 182 272 239 292 346 150 211 108 90 79 70 75 87 64 53 47 48 38 24 17 27 30 8 317 307 273 273 259 251 258 261
91 144 254 234 52 138 173 136 109 93 85 78 73 65 45 22 19 23 27 35 40 23 40 32 8 337 308 254 259 261 261 264
169 206 186 119 129 140 144 131 118 106 88 76 77 74 54 31 5 351 350 8 24 32 26 22 13 357 315 304 273 264 250 265
72 356 159 125 125 137 136 123 112 101 92 85 99 64 32 11 6 20 8 352 351 349 348 348 343 339 308 294 287 262 265 273
336 267 83 135 133 132 128 130 126 105 113 102 63 26 19 21 8 343 337 339 339 338 342 335 324 322 319 307 293 276 265 268
225 228 154 169 147 148 139 124 129 144 102 43 28 44 35 37 0 344 333 328 330 334 334 332 326 316 308 305 303 304 293 279
214 192 190 155 159 163 146 137 125 106 100 99 82 40 359 352 337 325 328 331 330 328 324 324 317 308 300 288 285 289 290 283
Wind_Speed_850mb
7 6 12 5 6 8 13 7 9 8 10 11 18 7 23 40 59 48 20 50 65 86 78 84 88 87 83 79 73 66 55 50
18 10 10 10 5 10 9 4 5 10 3 7 9 10 12 27 39 46 35 19 45 51 68 74 81 81 79 74 70 61 55 46
9 10 8 10 9 11 10 7 9 2 9 8 14 13 17 22 31 29 36 48 53 57 49 40 67 78 82 77 71 67 54 46
15 11 6 9 9 9 10 10 1 9 7 8 5 14 25 33 32 38 57 56 55 60 70 45 30 40 83 83 78 69 59 53
20 15 18 13 11 4 7 6 1 8 9 9 13 7 19 38 36 36 57 48 53 60 57 56 66 86 82 87 88 80 75 65
11 15 8 14 15 6 10 6 6 9 9 13 16 15 11 22 42 35 34 49 52 54 50 44 56 83 56 62 80 93 83 77
9 12 2 6 12 16 5 10 7 15 13 13 17 20 20 18 38 39 34 26 27 32 41 53 45 44 41 41 49 67 89 83
10 14 14 8 14 16 12 8 2 8 14 10 35 35 37 24 8 33 24 19 29 28 32 44 42 43 51 54 56 47 57 78
12 9 11 13 10 9 8 7 13 12 1 9 32 43 44 44 61 46 29 26 18 23 14 18 43 58 66 77 78 76 75 84
9 6 7 17 11 9 19 14 18 22 15 22 31 43 44 38 38 23 10 12 21 14 15 25 27 22 51 40 30 45 56 84
7 7 10 15 12 8 11 9 4 22 13 16 30 38 41 38 38 31 23 16 28 29 28 14 23 45 69 26 27 30 35 34
6 9 12 14 11 8 12 6 9 29 17 27 24 11 8 28 28 31 34 17 34 20 11 6 9 12 23 35 33 25 29 41
7 7 13 12 9 5 5 12 14 40 39 46 15 17 26 32 33 32 35 33 32 33 26 18 19 24 28 38 42 47 33 27
6 5 6 6 10 10 13 22 34 34 30 31 27 24 21 23 29 33 34 32 28 24 26 24 20 24 31 37 38 44 51 48
15 12 16 29 40 38 30 33 28 27 21 17 18 22 21 21 26 32 34 29 30 28 26 24 20 20 26 30 43 44 37 62
7 7 10 24 37 38 44 38 27 21 16 13 18 15 18 22 24 16 17 21 24 28 28 29 30 24 19 21 35 52 67 69
4 7 23 34 45 43 36 26 18 12 11 17 15 20 18 14 10 14 20 25 31 37 36 33 33 35 36 35 40 47 64 66
9 16 13 26 33 30 25 17 11 13 14 13 15 14 10 9 11 19 27 35 39 39 38 38 41 42 44 50 47 43 51 64
11 18 14 33 27 22 22 29 22 18 13 13 14 10 15 18 16 20 21 25 35 44 53 61 63 60 56 56 60 61 57 60
Wind_Direction_850mb
324 232 112 310 1 187 109 333 55 292 323 350 25 85 60 61 45 29 43 210 207 199 183 192 200 202 209 208 212 216 222 227
304 23 334 131 233 29 14 47 24 306 326 240 78 64 52 66 61 35 29 161 180 168 176 191 199 207 211 211 214 216 218 218
22 2 308 356 354 44 108 107 155 236 280 244 182 139 94 99 85 73 88 110 120 142 152 172 199 207 211 213 215 214 216 211
251 264 291 132 8 111 110 297 155 157 266 287 231 146 126 118 118 122 126 132 143 149 164 185 205 255 223 217 219 219 219 216
347 351 8 43 338 33 115 85 160 79 263 282 263 231 158 134 137 140 146 152 151 158 173 205 205 213 221 215 221 224 220 222
184 222 228 328 325 10 107 62 181 204 245 270 251 246 226 174 158 145 155 168 183 202 228 249 209 223 219 214 223 228 226 228
246 233 324 301 327 323 346 228 180 253 219 311 268 222 217 203 156 161 163 175 178 193 208 212 225 220 223 212 217 231 237 232
325 318 357 316 301 315 328 273 30 22 63 316 52 68 36 17 138 167 160 166 187 202 217 229 236 252 249 251 219 222 240 243
288 309 356 333 256 274 270 290 151 77 151 278 56 57 51 58 78 92 123 160 180 208 227 267 261 276 270 272 282 276 257 243
228 38 336 243 267 232 103 79 87 94 134 98 104 81 64 57 74 75 64 133 48 360 328 312 280 320 316 283 292 270 249 229
157 182 280 324 327 151 129 23 47 103 95 119 122 80 53 54 66 50 44 88 53 45 30 97 179 176 229 262 305 302 275 259
140 157 214 229 285 151 111 40 324 102 106 89 98 65 295 35 38 42 37 29 12 20 25 255 129 220 231 237 262 294 278 261
160 182 272 239 292 346 150 211 108 90 79 70 75 87 64 53 47 48 38 24 17 27 30 8 317 307 273 273 259 251 258 261
91 144 254 234 52 138 173 136 109 93 85 78 73 65 45 22 19 23 27 35 40 23 40 32 8 337 308 254 259 261 261 264
169 206 186 119 129 140 144 131 118 106 88 76 77 74 54 31 5 351 350 8 24 32 26 22 13 357 315 304 273 264 250 265
72 356 159 125 125 137 136 123 112 101 92 85 99 64 32 11 6 20 8 352 351 349 348 348 343 339 308 294 287 262 265 273
336 267 83 135 133 132 128 130 126 105 113 102 63 26 19 21 8 343 337 339 339 338 342 335 324 322 319 307 293 276 265 268
225 228 154 169 147 148 139 124 129 144 102 43 28 44 35 37 0 344 333 328 330 334 334 332 326 316 308 305 303 304 293 279
214 192 190 155 159 163 146 137 125 106 100 99 82 40 359 352 337 325 328 331 330 328 324 324 317 308 300 288 285 289 290 283